Weather History for KAPF - February, 2012

Change the Weather History Date:

Wednesday, February 15, 2012

  Actual Average Record
Temperature  
Mean Temperature 70 °F 67 °F  
Max Temperature 81 °F 77 °F 87 °F (1982)
Min Temperature 59 °F 57 °F 33 °F (1971)
Degree Days  
Heating Degree Days 0 2  
Month to date heating degree days 22 30  
Since 1 July heating degree days 119 210  
Cooling Degree Days 5 4  
Month to date cooling degree days 84 50  
Year to date cooling degree days 169 136  
Growing Degree Days 20 (Base 50)    
Moisture  
Dew Point 60 °F    
Average Humidity 73    
Maximum Humidity 97    
Minimum Humidity 49    
Precipitation  
Precipitation 0.00 in 0.09 in 0.97 in (1969)
Month to date precipitation 0.56 1.15  
Year to date precipitation 0.73 3.00  
Snow  
Snow 0.00 in - - ()
Month to date snowfall 0.0  
Since 1 July snowfall 0.0  
Snow Depth 0.00 in    
Sea Level Pressure  
Sea Level Pressure 30.15 in    
Wind  
Wind Speed 5 mph (SSE)    
Max Wind Speed 6 mph    
Max Gust Speed 7 mph    
Visibility 10 miles    
Events      
T = Trace of Precipitation, MM = Missing Value Source: NWS Daily Summary

Daily Weather History Graph

Daily Weather History Graph

Search for Another Location

Airport or City:

Trip Planner

Search our weather history database for the weather conditions in past years. The results will help you decide how hot, cold, wet, or windy it might be!

Date:

Astronomy

Feb. 15, 2012 Rise Set
Actual Time 7:03 AM EST 6:19 PM EST
Civil Twilight 6:39 AM EST 6:43 PM EST
Nautical Twilight 6:12 AM EST 7:10 PM EST
Astronomical Twilight 5:45 AM EST 7:37 PM EST
Moon 1:38 AM EST (2/15) 12:31 PM EST (2/15)
Length of Visible Light 12h 03m
Length of Day
11h 16m
Last Quarter, 39% of the Moon is Illuminated
Feb 15
Last Quarter
Feb 21
New
Feb 29
First Quarter
Mar 8
Full
Mar 14
Last Quarter

Hourly Weather History & Observations

Time (EST) Temp. Heat Index Dew Point Humidity Pressure Visibility Wind Dir Wind Speed Gust Speed Precip Events Conditions
12:53 AM 63.0 °F - 60.1 °F 90% 30.14 in 10.0 mi Calm Calm - N/A   Clear
1:53 AM 61.0 °F - 59.0 °F 93% 30.13 in 10.0 mi Calm Calm - N/A   Clear
2:53 AM 62.1 °F - 59.0 °F 90% 30.11 in 10.0 mi ESE 3.5 mph - N/A   Clear
3:53 AM 61.0 °F - 59.0 °F 93% 30.11 in 10.0 mi East 3.5 mph - N/A   Clear
4:53 AM 60.1 °F - 57.9 °F 93% 30.12 in 10.0 mi Calm Calm - N/A   Clear
5:53 AM 59.0 °F - 57.9 °F 96% 30.14 in 10.0 mi Calm Calm - N/A   Clear
6:53 AM 59.0 °F - 57.0 °F 93% 30.16 in 10.0 mi Calm Calm - N/A   Clear
7:53 AM 61.0 °F - 59.0 °F 93% 30.17 in 8.0 mi East 4.6 mph - N/A   Clear
8:53 AM 69.1 °F - 61.0 °F 75% 30.18 in 10.0 mi ESE 4.6 mph - N/A   Clear
9:53 AM 73.9 °F - 61.0 °F 64% 30.20 in 10.0 mi East 6.9 mph - N/A   Clear
10:53 AM 77.0 °F - 60.1 °F 56% 30.21 in 10.0 mi SE 9.2 mph - N/A   Partly Cloudy
11:53 AM 79.0 °F - 59.0 °F 50% 30.19 in 10.0 mi SSE 5.8 mph - N/A   Mostly Cloudy
12:53 PM 80.1 °F 80.7 °F 59.0 °F 48% 30.16 in 10.0 mi Variable 6.9 mph - N/A   Scattered Clouds
1:29 PM 78.8 °F - 60.8 °F 54% 30.15 in 10.0 mi SW 13.8 mph - N/A   Clear
1:53 PM 79.0 °F - 61.0 °F 54% 30.13 in 10.0 mi SW 10.4 mph - N/A   Clear
2:53 PM 77.0 °F - 60.1 °F 56% 30.11 in 10.0 mi SW 13.8 mph - N/A   Scattered Clouds
3:53 PM 78.1 °F - 61.0 °F 56% 30.11 in 10.0 mi SW 9.2 mph - N/A   Clear
4:53 PM 75.9 °F - 61.0 °F 60% 30.12 in 10.0 mi SW 5.8 mph - N/A   Partly Cloudy
5:53 PM 73.9 °F - 62.1 °F 66% 30.14 in 10.0 mi SW 6.9 mph - N/A   Partly Cloudy
6:53 PM 71.1 °F - 63.0 °F 75% 30.15 in 10.0 mi SSW 5.8 mph - N/A   Clear
7:53 PM 69.1 °F - 63.0 °F 81% 30.16 in 10.0 mi Calm Calm - N/A   Clear
8:53 PM 69.1 °F - 62.1 °F 78% 30.17 in 10.0 mi Calm Calm - N/A   Clear
9:53 PM 66.9 °F - 62.1 °F 84% 30.17 in 9.0 mi East 3.5 mph - N/A   Unknown
10:53 PM 66.0 °F - 62.1 °F 87% 30.18 in 10.0 mi East 4.6 mph - N/A   Clear
11:53 PM 64.9 °F - 61.0 °F 87% 30.18 in 10.0 mi ENE 3.5 mph - N/A   Clear